When you browse on this site, cookies collect data to enhance your experience and personalize the content and advertising you see.
Visit our Privacy Policy to learn more. By continuing to use the site, you agree to this use of cookies and data.
  • In United Kingdom
  • List of Countries
  • For 7 days
  • Water Temperature
  • Weather Map
  • Weather Widgets
  • user-avatar
    Login

    Hourly Weather Szombathely

    Today, 4 April, Saturday

    Time Temperature Precipitation Wind Pressure Humidity
    00:00 +6°C° 0 mm 2 mps 745 mmHg 81%
    01:00 +6°C° 0 mm 1 mps 746 mmHg 83%
    02:00 +5°C° 0 mm 2 mps 746 mmHg 84%
    03:00 +5°C° 0 mm 2 mps 746 mmHg 85%
    04:00 +4°C° 0 mm 2 mps 746 mmHg 87%
    05:00 +4°C° 0 mm 3 mps 747 mmHg 83%
    06:00 +5°C° 0 mm 3 mps 747 mmHg 79%
    07:00 +7°C° 0 mm 3 mps 748 mmHg 75%
    08:00 +7°C° 0 mm 4 mps 748 mmHg 65%
    09:00 +10°C° 0 mm 4 mps 748 mmHg 55%
    10:00 +12°C° 0 mm 5 mps 748 mmHg 46%
    11:00 +12°C° 0 mm 5 mps 748 mmHg 44%
    12:00 +13°C° 0 mm 5 mps 748 mmHg 42%
    13:00 +14°C° 0 mm 5 mps 748 mmHg 40%
    14:00 +14°C° 0 mm 5 mps 748 mmHg 41%
    15:00 +14°C° 0 mm 5 mps 748 mmHg 42%
    16:00 +14°C° 0 mm 5 mps 748 mmHg 43%
    17:00 +12°C° 0 mm 4 mps 748 mmHg 50%
    18:00 +10°C° 0 mm 4 mps 748 mmHg 57%
    19:00 +8°C° 0 mm 3 mps 749 mmHg 65%
    20:00 +8°C° 0 mm 3 mps 749 mmHg 67%
    21:00 +7°C° 0 mm 3 mps 750 mmHg 69%
    22:00 +5°C° 0 mm 3 mps 751 mmHg 72%
    23:00 +5°C° 0 mm 3 mps 751 mmHg 72%

    Tomorrow, 5 April, Sunday

    Time Temperature Precipitation Wind Pressure Humidity
    00:00 +5°C° 0 mm 2 mps 751 mmHg 72%
    01:00 +5°C° 0 mm 2 mps 751 mmHg 72%
    02:00 +5°C° 0 mm 2 mps 751 mmHg 72%
    03:00 +4°C° 0 mm 2 mps 751 mmHg 73%
    04:00 +4°C° 0 mm 2 mps 752 mmHg 74%
    05:00 +4°C° 0 mm 2 mps 752 mmHg 71%
    06:00 +5°C° 0 mm 2 mps 752 mmHg 69%
    07:00 +6°C° 0 mm 2 mps 752 mmHg 66%
    08:00 +8°C° 0 mm 3 mps 753 mmHg 58%
    09:00 +10°C° 0 mm 3 mps 753 mmHg 50%
    10:00 +12°C° 0 mm 3 mps 753 mmHg 42%
    11:00 +13°C° 0 mm 3 mps 753 mmHg 40%
    12:00 +14°C° 0 mm 3 mps 752 mmHg 38%
    13:00 +16°C° 0 mm 3 mps 752 mmHg 36%
    14:00 +16°C° 0 mm 3 mps 752 mmHg 37%
    15:00 +16°C° 0 mm 3 mps 751 mmHg 38%
    16:00 +16°C° 0 mm 3 mps 751 mmHg 40%
    17:00 +14°C° 0 mm 2 mps 751 mmHg 48%
    18:00 +12°C° 0 mm 2 mps 751 mmHg 56%
    19:00 +10°C° 0 mm 2 mps 751 mmHg 64%
    20:00 +9°C° 0 mm 2 mps 752 mmHg 68%
    21:00 +8°C° 0 mm 2 mps 752 mmHg 71%
    22:00 +7°C° 0 mm 2 mps 752 mmHg 74%
    23:00 +8°C° 0 mm 1 mps 753 mmHg 76%

    Day after tomorrow, 6 April, Monday

    Time Temperature Precipitation Wind Pressure Humidity
    00:00 +7°C° 0 mm 1 mps 753 mmHg 78%
    01:00 +7°C° 0 mm 1 mps 753 mmHg 80%
    02:00 +7°C° 0 mm 1 mps 753 mmHg 81%
    03:00 +6°C° 0 mm 1 mps 752 mmHg 82%
    04:00 +6°C° 0 mm 1 mps 752 mmHg 83%
    05:00 +7°C° 0 mm 1 mps 753 mmHg 80%
    06:00 +6°C° 0 mm 2 mps 753 mmHg 77%
    07:00 +7°C° 0 mm 2 mps 753 mmHg 74%
    08:00 +9°C° 0 mm 3 mps 753 mmHg 64%
    09:00 +11°C° 0 mm 4 mps 754 mmHg 55%
    10:00 +13°C° 0 mm 5 mps 754 mmHg 45%
    11:00 +14°C° 0 mm 5 mps 754 mmHg 42%
    12:00 +15°C° 0 mm 5 mps 753 mmHg 39%
    13:00 +16°C° 0 mm 5 mps 753 mmHg 36%
    14:00 +15°C° 0 mm 5 mps 753 mmHg 37%
    15:00 +15°C° 0 mm 5 mps 753 mmHg 38%
    16:00 +15°C° 0 mm 5 mps 753 mmHg 39%
    17:00 +13°C° 0 mm 4 mps 753 mmHg 45%
    18:00 +11°C° 0 mm 4 mps 753 mmHg 51%
    19:00 +9°C° 0 mm 3 mps 753 mmHg 57%
    20:00 +8°C° 0 mm 2 mps 754 mmHg 57%
    21:00 +8°C° 0 mm 2 mps 754 mmHg 56%
    22:00 +7°C° 0 mm 2 mps 755 mmHg 56%
    23:00 +6°C° 0 mm 2 mps 755 mmHg 57%

    7 April, Tuesday

    Time Temperature Precipitation Wind Pressure Humidity
    00:00 +6°C° 0 mm 2 mps 755 mmHg 58%
    01:00 +6°C° 0 mm 2 mps 755 mmHg 58%
    02:00 +6°C° 0 mm 1 mps 755 mmHg 60%
    03:00 +6°C° 0 mm 1 mps 755 mmHg 62%
    04:00 +5°C° 0 mm 1 mps 755 mmHg 64%
    05:00 +6°C° 0 mm 1 mps 755 mmHg 62%
    06:00 +7°C° 0 mm 1 mps 755 mmHg 60%
    07:00 +8°C° 0 mm 1 mps 756 mmHg 59%
    08:00 +9°C° 0 mm 2 mps 756 mmHg 50%
    09:00 +12°C° 0 mm 2 mps 756 mmHg 42%
    10:00 +13°C° 0 mm 3 mps 756 mmHg 33%
    11:00 +14°C° 0 mm 3 mps 756 mmHg 32%
    12:00 +15°C° 0 mm 4 mps 755 mmHg 31%
    13:00 +17°C° 0 mm 4 mps 755 mmHg 29%
    14:00 +17°C° 0 mm 4 mps 755 mmHg 30%
    15:00 +17°C° 0 mm 3 mps 755 mmHg 32%
    16:00 +17°C° 0 mm 3 mps 754 mmHg 33%
    17:00 +14°C° 0 mm 3 mps 754 mmHg 40%
    18:00 +13°C° 0 mm 2 mps 754 mmHg 46%
    19:00 +10°C° 0 mm 2 mps 754 mmHg 52%
    20:00 +9°C° 0 mm 2 mps 755 mmHg 54%
    21:00 +8°C° 0 mm 2 mps 755 mmHg 57%
    22:00 +8°C° 0 mm 2 mps 755 mmHg 59%
    23:00 +7°C° 0 mm 2 mps 755 mmHg 60%

    8 April, Wednesday

    Time Temperature Precipitation Wind Pressure Humidity
    00:00 +7°C° 0 mm 2 mps 755 mmHg 61%
    01:00 +6°C° 0 mm 2 mps 755 mmHg 62%
    02:00 +7°C° 0 mm 1 mps 755 mmHg 63%
    03:00 +7°C° 0 mm 1 mps 755 mmHg 64%
    04:00 +7°C° 0 mm 1 mps 755 mmHg 65%
    05:00 +8°C° 0 mm 1 mps 754 mmHg 63%
    06:00 +9°C° 0 mm 1 mps 754 mmHg 61%
    07:00 +10°C° 0 mm 1 mps 754 mmHg 59%
    08:00 +12°C° 0 mm 1 mps 754 mmHg 53%
    09:00 +14°C° 0 mm 2 mps 754 mmHg 47%
    10:00 +16°C° 0 mm 2 mps 753 mmHg 41%
    11:00 +17°C° 0 mm 3 mps 753 mmHg 38%
    12:00 +18°C° 0 mm 3 mps 752 mmHg 35%
    13:00 +19°C° 0 mm 3 mps 752 mmHg 33%
    14:00 +18°C° 0 mm 3 mps 751 mmHg 33%
    15:00 +18°C° 0 mm 3 mps 751 mmHg 34%
    16:00 +18°C° 0 mm 3 mps 750 mmHg 34%
    17:00 +16°C° 0 mm 2 mps 750 mmHg 40%
    18:00 +14°C° 0 mm 2 mps 750 mmHg 46%
    19:00 +12°C° 0 mm 1 mps 750 mmHg 52%
    20:00 +10°C° 0 mm 2 mps 750 mmHg 54%
    21:00 +10°C° 0 mm 2 mps 750 mmHg 56%
    22:00 +9°C° 0 mm 2 mps 750 mmHg 57%
    23:00 +8°C° 0 mm 2 mps 750 mmHg 58%

    9 April, Thursday

    Time Temperature Precipitation Wind Pressure Humidity
    00:00 +8°C° 0 mm 2 mps 750 mmHg 59%
    01:00 +8°C° 0 mm 2 mps 750 mmHg 60%
    02:00 +7°C° 0 mm 2 mps 749 mmHg 61%
    03:00 +7°C° 0 mm 2 mps 749 mmHg 62%
    04:00 +7°C° 0 mm 2 mps 749 mmHg 63%
    05:00 +8°C° 0 mm 2 mps 749 mmHg 61%
    06:00 +8°C° 0 mm 2 mps 749 mmHg 60%
    07:00 +10°C° 0 mm 1 mps 749 mmHg 58%
    08:00 +13°C° 0 mm 1 mps 749 mmHg 51%
    09:00 +15°C° 0 mm 2 mps 749 mmHg 44%
    10:00 +17°C° 0 mm 2 mps 749 mmHg 37%
    11:00 +19°C° 0 mm 1 mps 749 mmHg 35%
    12:00 +21°C° 0 mm 1 mps 749 mmHg 33%
    13:00 +22°C° 0 mm 1 mps 748 mmHg 31%
    14:00 +22°C° 0 mm 1 mps 748 mmHg 32%
    15:00 +22°C° 0 mm 1 mps 747 mmHg 33%
    16:00 +21°C° 0 mm 2 mps 747 mmHg 34%
    17:00 +19°C° 0 mm 1 mps 747 mmHg 41%
    18:00 +16°C° 0 mm 1 mps 747 mmHg 48%
    19:00 +14°C° 0 mm 1 mps 747 mmHg 55%
    20:00 +14°C° 0 mm 2 mps 748 mmHg 57%
    21:00 +13°C° 0 mm 2 mps 748 mmHg 58%
    22:00 +12°C° 0 mm 3 mps 749 mmHg 60%
    23:00 +11°C° 0 mm 4 mps 749 mmHg 60%
    Show more